Location: Ripley
(48.3812°N, 115.4473°W)
Time: 21:38:12
(UTC+00:00)

CAS-6 - Pass Details

Date: 03 July 2022
Orbit: 613 x 634 km, 97.9° (Epoch: 16 August)

Event Time Altitude Azimuth Distance (km) Brightness Sun altitude
Exits shadow 06:03:48 23° 179° (S) 1,322 ? -15.1°
Maximum altitude 06:06:24 68° 257° (WSW) 674 ? -15.3°
Drops below altitude 10° 06:10:45 10° 342° (NNW) 2,002 ? -15.5°
Sets 06:12:58 0° 345° (NNW) 2,910 ? -15.7°
